| time (UTC) | temp C | wind direction | speed KPH | gust KPH | rain 1hr cm | rain 24hr cm | rain mn cm | humidity % | barometer mb |
| 20260508010044 | 14 | 198 | 0.0 | 1.6 | 0.00 | 0.00 | 0.00 | 65 | 1012.5 |
| 20260508004544 | 14 | 0 | 0.0 | 6.4 | 0.00 | 0.00 | 0.00 | 65 | 1012.7 |
| 20260508003050 | 14 | 0 | 0.0 | 3.2 | 0.00 | 0.00 | 0.00 | 65 | 1013.2 |
| 20260508001551 | 14 | 198 | 3.2 | 8.0 | 0.00 | 0.00 | 0.00 | 65 | 1012.9 |
| 20260508000043 | 14 | 198 | 1.6 | 3.2 | 0.00 | 0.00 | 0.00 | 64 | 1013.2 |
| 20260507234548 | 15 | 198 | 3.2 | 6.4 | 0.00 | 0.00 | 0.00 | 64 | 1013.1 |
| 20260507233044 | 15 | 198 | 1.6 | 8.0 | 0.00 | 0.00 | 0.00 | 64 | 1013.1 |
| 20260507231546 | 15 | 198 | 3.2 | 4.8 | 0.00 | 0.00 | 0.00 | 64 | 1012.8 |
| 20260507230051 | 15 | 198 | 1.6 | 4.8 | 0.00 | 0.00 | 0.00 | 64 | 1012.8 |
| 20260507224545 | 15 | 198 | 1.6 | 4.8 | 0.00 | 0.00 | 0.00 | 64 | 1013.3 |
| 20260507223043 | 15 | 198 | 6.4 | 9.7 | 0.00 | 0.00 | 0.00 | 64 | 1013.7 |
| 20260507221548 | 16 | 198 | 3.2 | 4.8 | 0.00 | 0.00 | 0.00 | 64 | 1013.3 |
| 20260507220051 | 16 | 198 | 1.6 | 3.2 | 0.00 | 0.00 | 0.00 | 64 | 1013.5 |
| 20260507214547 | 16 | 198 | 0.0 | 4.8 | 0.00 | 0.00 | 0.00 | 64 | 1013.4 |
| 20260507213053 | 16 | 198 | 0.0 | 4.8 | 0.00 | 0.00 | 0.00 | 64 | 1013.4 |
| 20260507211554 | 16 | 198 | 1.6 | 3.2 | 0.00 | 0.00 | 0.00 | 64 | 1013.2 |
| 20260507210050 | 16 | 198 | 3.2 | 6.4 | 0.00 | 0.00 | 0.00 | 64 | 1013.2 |
| 20260507204548 | 16 | 198 | 1.6 | 6.4 | 0.00 | 0.00 | 0.00 | 64 | 1013.0 |
| 20260507203044 | 17 | 198 | 3.2 | 11.3 | 0.00 | 0.00 | 0.00 | 64 | 1012.9 |
| 20260507201552 | 17 | 198 | 4.8 | 9.7 | 0.00 | 0.00 | 0.00 | 64 | 1012.9 |
| 20260507200046 | 17 | 198 | 4.8 | 11.3 | 0.00 | 0.00 | 0.00 | 64 | 1012.7 |
| 20260507194548 | 17 | 198 | 6.4 | 14.5 | 0.00 | 0.00 | 0.00 | 63 | 1012.5 |
| 20260507193049 | 17 | 198 | 8.0 | 14.5 | 0.00 | 0.00 | 0.00 | 63 | 1012.3 |
| 20260507191546 | 17 | 198 | 9.7 | 19.3 | 0.00 | 0.00 | 0.00 | 63 | 1012.1 |
| 20260507190044 | 17 | 198 | 9.7 | 20.9 | 0.00 | 0.00 | 0.00 | 62 | 1012.0 |
| 20260507184549 | 17 | 199 | 6.4 | 16.1 | 0.00 | 0.00 | 0.00 | 62 | 1011.7 |
| 20260507183055 | 18 | 199 | 8.0 | 19.3 | 0.00 | 0.00 | 0.00 | 62 | 1011.5 |
| 20260507181546 | 18 | 200 | 6.4 | 14.5 | 0.00 | 0.00 | 0.00 | 62 | 1011.2 |
| 20260507180055 | 19 | 200 | 6.4 | 14.5 | 0.00 | 0.00 | 0.00 | 62 | 1011.3 |
| 20260507174546 | 20 | 200 | 8.0 | 16.1 | 0.00 | 0.00 | 0.00 | 63 | 1011.2 |
| 20260507173056 | 20 | 200 | 6.4 | 14.5 | 0.00 | 0.00 | 0.00 | 63 | 1011.3 |
| 20260507171552 | 20 | 200 | 9.7 | 24.1 | 0.00 | 0.00 | 0.00 | 63 | 1011.4 |
| 20260507170055 | 20 | 200 | 12.9 | 20.9 | 0.00 | 0.00 | 0.00 | 63 | 1011.4 |
| 20260507164544 | 20 | 200 | 16.1 | 25.7 | 0.00 | 0.00 | 0.00 | 63 | 1011.5 |
| 20260507163048 | 19 | 195 | 16.1 | 24.1 | 0.00 | 0.00 | 0.00 | 63 | 1011.5 |
| 20260507161551 | 20 | 181 | 12.9 | 27.4 | 0.00 | 0.00 | 0.00 | 63 | 1011.5 |
| 20260507160053 | 20 | 177 | 16.1 | 30.6 | 0.00 | 0.00 | 0.00 | 63 | 1011.4 |
| 20260507154548 | 20 | 182 | 14.5 | 32.2 | 0.00 | 0.00 | 0.00 | 63 | 1011.4 |
| 20260507153102 | 20 | 167 | 12.9 | 24.1 | 0.00 | 0.00 | 0.00 | 63 | 1011.4 |
| 20260507151542 | 20 | 159 | 11.3 | 22.5 | 0.00 | 0.00 | 0.00 | 63 | 1011.6 |
| 20260507150053 | 20 | 151 | 14.5 | 24.1 | 0.00 | 0.00 | 0.00 | 63 | 1011.7 |
| 20260507144545 | 20 | 153 | 12.9 | 20.9 | 0.00 | 0.00 | 0.00 | 63 | 1011.9 |
| 20260507143057 | 20 | 153 | 9.7 | 19.3 | 0.00 | 0.00 | 0.00 | 63 | 1011.9 |
| 20260507141548 | 20 | 153 | 12.9 | 17.7 | 0.00 | 0.00 | 0.00 | 63 | 1012.1 |
| 20260507140046 | 20 | 151 | 8.0 | 20.9 | 0.00 | 0.00 | 0.00 | 63 | 1012.0 |
| 20260507134541 | 20 | 150 | 12.9 | 20.9 | 0.00 | 0.00 | 0.00 | 63 | 1012.3 |
| 20260507133049 | 20 | 150 | 12.9 | 22.5 | 0.00 | 0.00 | 0.00 | 64 | 1012.3 |
| 20260507131549 | 20 | 148 | 11.3 | 19.3 | 0.00 | 0.00 | 0.00 | 64 | 1012.4 |
| 20260507130100 | 20 | 147 | 9.7 | 20.9 | 0.00 | 0.00 | 0.00 | 64 | 1012.6 |
| 20260507124552 | 20 | 146 | 11.3 | 22.5 | 0.00 | 0.00 | 0.00 | 64 | 1012.5 |
| 20260507123049 | 20 | 145 | 8.0 | 22.5 | 0.00 | 0.00 | 0.00 | 65 | 1012.9 |
| 20260507121554 | 20 | 140 | 9.7 | 22.5 | 0.00 | 0.00 | 0.00 | 65 | 1013.2 |
| 20260507120047 | 19 | 131 | 9.7 | 24.1 | 0.00 | 0.00 | 0.00 | 65 | 1013.3 |
| 20260507114545 | 19 | 146 | 11.3 | 22.5 | 0.00 | 0.00 | 0.00 | 65 | 1013.4 |
| 20260507113052 | 19 | 152 | 8.0 | 20.9 | 0.00 | 0.00 | 0.00 | 66 | 1013.4 |
| 20260507111544 | 18 | 143 | 16.1 | 25.7 | 0.00 | 0.00 | 0.00 | 66 | 1013.2 |
| 20260507110056 | 19 | 103 | 14.5 | 24.1 | 0.00 | 0.00 | 0.00 | 66 | 1013.2 |
| 20260507104555 | 18 | 101 | 12.9 | 22.5 | 0.00 | 0.00 | 0.00 | 66 | 1013.1 |
| 20260507103112 | 18 | 98 | 11.3 | 19.3 | 0.00 | 0.00 | 0.00 | 67 | 1013.1 |
| 20260507101545 | 18 | 98 | 11.3 | 20.9 | 0.00 | 0.00 | 0.00 | 67 | 1013.3 |
| 20260507094553 | 17 | 98 | 8.0 | 17.7 | 0.00 | 0.00 | 0.00 | 67 | 1013.2 |
| 20260507093045 | 17 | 98 | 11.3 | 19.3 | 0.00 | 0.00 | 0.00 | 67 | 1013.3 |
| 20260507091544 | 17 | 98 | 9.7 | 19.3 | 0.00 | 0.00 | 0.00 | 67 | 1013.2 |
| 20260507090038 | 17 | 98 | 8.0 | 14.5 | 0.00 | 0.00 | 0.00 | 67 | 1013.3 |
| 20260507084548 | 17 | 98 | 4.8 | 9.7 | 0.00 | 0.00 | 0.00 | 67 | 1013.1 |
| 20260507083045 | 17 | 98 | 3.2 | 8.0 | 0.00 | 0.00 | 0.00 | 67 | 1012.9 |
| 20260507081544 | 17 | 98 | 3.2 | 6.4 | 0.00 | 0.00 | 0.00 | 68 | 1012.8 |
| 20260507080046 | 17 | 98 | 1.6 | 6.4 | 0.00 | 0.00 | 0.00 | 68 | 1012.7 |
| 20260507074540 | 17 | 98 | 3.2 | 4.8 | 0.00 | 0.00 | 0.00 | 68 | 1012.6 |
| 20260507073049 | 16 | 98 | 0.0 | 4.8 | 0.00 | 0.00 | 0.00 | 68 | 1012.5 |
| 20260507071549 | 15 | 98 | 1.6 | 4.8 | 0.00 | 0.00 | 0.00 | 68 | 1012.3 |
| 20260507064552 | 14 | 98 | 3.2 | 6.4 | 0.00 | 0.00 | 0.00 | 68 | 1012.1 |
| 20260507063044 | 13 | 98 | 0.0 | 1.6 | 0.00 | 0.00 | 0.00 | 67 | 1011.9 |
| 20260507061552 | 12 | 98 | 1.6 | 4.8 | 0.00 | 0.00 | 0.00 | 67 | 1012.0 |
| 20260507060044 | 13 | 98 | 3.2 | 4.8 | 0.00 | 0.00 | 0.00 | 67 | 1012.0 |
| 20260507054559 | 13 | 0 | 0.0 | 0.0 | 0.00 | 0.00 | 0.00 | 67 | 1011.6 |
| 20260507053059 | 13 | 98 | 1.6 | 3.2 | 0.00 | 0.00 | 0.00 | 67 | 1011.5 |
| 20260507051551 | 13 | 98 | 1.6 | 6.4 | 0.00 | 0.00 | 0.00 | 67 | 1011.4 |
| 20260507050050 | 14 | 98 | 1.6 | 4.8 | 0.00 | 0.00 | 0.00 | 67 | 1011.4 |
| 20260507044552 | 14 | 98 | 4.8 | 11.3 | 0.00 | 0.00 | 0.00 | 67 | 1011.2 |
| 20260507043039 | 14 | 98 | 4.8 | 9.7 | 0.00 | 0.00 | 0.00 | 67 | 1011.3 |
| 20260507041558 | 14 | 98 | 3.2 | 6.4 | 0.00 | 0.00 | 0.00 | 67 | 1011.4 |
| 20260507040045 | 14 | 98 | 1.6 | 6.4 | 0.00 | 0.00 | 0.00 | 67 | 1011.3 |
| 20260507034544 | 14 | 98 | 3.2 | 8.0 | 0.00 | 0.00 | 0.00 | 67 | 1011.3 |
| 20260507033053 | 14 | 98 | 4.8 | 12.9 | 0.00 | 0.00 | 0.00 | 67 | 1011.3 |
| 20260507031548 | 15 | 98 | 6.4 | 20.9 | 0.00 | 0.00 | 0.00 | 67 | 1011.1 |
| 20260507030052 | 15 | 98 | 6.4 | 17.7 | 0.00 | 0.00 | 0.00 | 67 | 1011.0 |
| 20260507024549 | 15 | 98 | 9.7 | 17.7 | 0.00 | 0.00 | 0.00 | 67 | 1011.0 |
| 20260507023051 | 15 | 98 | 6.4 | 14.5 | 0.00 | 0.00 | 0.00 | 67 | 1011.2 |
| 20260507021550 | 15 | 98 | 8.0 | 16.1 | 0.00 | 0.00 | 0.00 | 67 | 1011.1 |
| 20260507020106 | 15 | 98 | 6.4 | 20.9 | 0.00 | 0.00 | 0.00 | 67 | 1011.1 |
| 20260507014606 | 15 | 98 | 9.7 | 24.1 | 0.00 | 0.00 | 0.00 | 67 | 1011.1 |
| 20260507013056 | 15 | 96 | 12.9 | 25.7 | 0.00 | 0.00 | 0.00 | 67 | 1011.1 |
| 20260507011555 | 15 | 99 | 12.9 | 29.0 | 0.00 | 0.00 | 0.00 | 67 | 1011.2 |